STARLINK-35813, 66361

Orbit data source: Space-Track

STARLINK-35813, 66361 is a payload satellite owned by SpaceX/Seattle (US) in LEO that was launched on Thu, 06 Nov 2025 UTC via an FALCON 9 launch vehicle from the Air Force Western Test Range (AFWTR). Payload-class satellites include a variety of spacecraft equipped with specific instruments for various scientific and technological missions. These include communications satellites like Starlink; space stations such as the ISS; scientific satellites like the Hubble; Earth observation satellites from companies like Planet Labs, Umbra, and HawkEye 360; GPS; miniature CubeSats for education and research; and military/defense satellites.

Loading next visibility...
Identifier
66361, 2025-254P
Orbit
LEO
Country
Flag of USUS
Related business
Manufacturer
SpaceX/Seattle
Mission
Operational Commercial Communications
Bus & Motor
STARLINK V2MO, Unknown motor
Mass
575 kg wet, ~530 kg dry
Launch date (UTC)
2025-11-06 (7 months ago)
Launch vehicle
FALCON 9
Launch site
Air Force Western Test Range (AFWTR)
Object type
Payload
Rocket body
Debris
Shape & HBR
Box + 2 Pan, 17.7 m
Radar Cross Section
36.964 m², Large (>1 m²)

Expand to show TLE details & history
Last TLE update: 15 hours ago

TLE from 15 hours ago
0 STARLINK-35813
1 66361U 25254P   26171.22212749  .00030226  00000-0  98096-3 0  9994
2 66361  53.1588 115.5055 0001151  96.6744 263.4388 15.31728829 34681
Epoch: 2026-06-20T05:19Z
TLE epoch observation values (Epoch: 2026-06-20T05:19:51.815Z)
Latitude
-0.00004°
Longitude
127.09972°
Altitude
471.644 km
Speed
7.631 km/s
True Right ascension
07h 42m 01s
True Declination
0° 00' 00"
Sunlit
Object was in daylight at epoch
Visualization orbit readout
Latitude
Unknown
Longitude
Unknown
Altitude
Unknown
Speed
Unknown
Apparent Right ascension
Unknown
Apparent Declination
Unknown
Sunlit
N/A
Visualization observer readout
Local Sidereal Time
07:18:27
Azimuth
Unknown
Elevation
Unknown
Doppler factor
Unknown
Orbital elements
Apogee altitude
471.699 km
Perigee altitude
470.123 km
Semi-major axis
6,849.048 km
Eccentricity
0.00012
Inclination
53.1588°
RAAN
115.5055°
Arg. of periapsis
96.6744°
True anomaly
263.4257°
Mean anomaly
263.4388°
Eccentric anomaly
263.43225°
Mean motion
3.82911 °/min
Orbital period
94.02 mins
BSTAR
0.00098096
Loading maneuver chart data...
Computing Atmospheric mass density...
Loading historical data...
Loading historical data...
Loading historical data...
Loading historical data...
Loading historical data...
Loading historical data...
Loading historical data...

Documentation

Showing up to 5 results
|